{"data":{"norad_id":62112,"epoch":"2026-09-22T20:53:48.770304Z","epoch_age_seconds":102806,"freshness":"FRESH","line1":"1 62112U 24221B   26265.87070336  .00002847  00000+0  16928-3 0  9997","line2":"2 62112  49.9428  46.4102 0005791  20.3855 339.7326 15.14369910100982","mean_motion":15.1436991,"eccentricity":0.0005791,"inclination_deg":49.9428,"raan_deg":46.4102,"arg_perigee_deg":20.3855,"mean_anomaly_deg":339.7326,"bstar":0.00016928,"rev_number":10098,"period_min":95.089052581611,"perigee_km":518.8957366257,"apogee_km":526.88850855549,"semimajor_km":6901.0291225906,"source":"CELESTRAK","updated_at":"2026-09-23T09:00:21.244168Z"}}